Regional Weather Roundup
Issued by NWS Charleston, WV

Home | Current Version | Previous Version | Text Only | Print | Product List | Glossary On
Versions: 1 2 3 4 5 6 7 8 9 10 11 12 13 14 15 16 17 18 19 20 21 22 23 24 25 26 27
000
ASUS41 KRLX 250110
RWRRLX
West Virginia Regional Weather Roundup
National Weather Service Charleston WV
900 PM EDT SUN SEP 24 2017

Note: "fair" indicates few or no clouds below 12,000 feet with no
significant weather and/or obstructions to visibility.

WVZ003-250200-
Northern Panhandle of West Virginia

CITY           SKY/WX    TMP DP  RH WIND       PRES   REMARKS
WHEELING       CLEAR     77  63  61 E5        30.10R
$$

WVZ009-250200-
Northwest West Virginia

CITY           SKY/WX    TMP DP  RH WIND       PRES   REMARKS
PARKERSBURG    PTCLDY    71  68  90 CALM      30.09R
$$

WVZ006-250200-
Western West Virginia

CITY           SKY/WX    TMP DP  RH WIND       PRES   REMARKS
HUNTINGTON     CLEAR     75  59  57 CALM      30.05S
$$

WVZ015-250200-
West Central West Virginia

CITY           SKY/WX    TMP DP  RH WIND       PRES   REMARKS
CHARLESTON     PTCLDY    73  64  73 CALM      30.07R
$$

WVZ022-031-250200-
North Central West Virginia

CITY           SKY/WX    TMP DP  RH WIND       PRES   REMARKS
CLARKSBURG     CLEAR     75  62  64 CALM      30.09R
MORGANTOWN     CLEAR     76  63  64 CALM      30.11R
$$

WVZ025-035-042-045-250200-
Southern West Virginia

CITY           SKY/WX    TMP DP  RH WIND       PRES   REMARKS
BECKLEY        CLEAR     67  55  65 SE3       30.16R
LOGAN            N/A     77  61  57 CALM      30.10S
BLUEFIELD      CLEAR     70  51  51 E3        30.17S
LEWISBURG      PTCLDY    67  57  70 CALM      30.15R
$$

WVZ047-250200-
Northern Mountains of West Virginia

CITY           SKY/WX    TMP DP  RH WIND       PRES   REMARKS
ELKINS         CLEAR     64  59  83 CALM      30.15R
$$

WVZ052-250200-
Eastern Panhandle of West Virginia

CITY           SKY/WX    TMP DP  RH WIND       PRES   REMARKS
MARTINSBURG    CLEAR     71  65  81 CALM      30.07R
PETERSBURG     CLEAR     71  65  83 NW5       30.10R
$$




USA.gov is the U.S. government's official web portal to all federal, state and local government web resources and services.